Temperature
-2 -2 -2 -2 -3 -3 -3 -2 -2 -2 -1 -1 -0 0 1 2 3 3 4 6 7 8 9 9 10 11 12 13 13 14 14 15 15 15 16 16 16 16 16 16 16 16 16
-3 -3 -4 -4 -4 -4 -4 -4 -4 -3 -3 -2 -1 -1 0 1 1 2 3 4 5 7 8 9 9 10 11 12 13 14 14 14 15 15 15 16 16 16 16 16 16 16 16
-5 -5 -5 -6 -6 -6 -6 -5 -5 -5 -4 -4 -3 -2 -1 -0 0 1 2 3 4 5 6 8 9 9 10 11 12 13 14 14 15 15 15 15 16 16 16 16 16 16 16
-6 -6 -7 -7 -7 -7 -7 -7 -6 -6 -5 -5 -4 -3 -2 -2 -1 0 1 2 3 4 5 6 8 9 10 11 11 12 13 14 14 15 15 15 15 15 15 16 16 16 16
-7 -7 -7 -8 -8 -8 -8 -8 -8 -8 -7 -6 -6 -5 -4 -3 -2 -1 -1 0 1 2 3 5 7 8 9 10 11 12 13 14 14 14 15 15 15 15 15 15 15 16 16
-8 -8 -8 -9 -9 -9 -9 -9 -9 -9 -9 -8 -8 -6 -5 -4 -3 -3 -3 -2 -1 -1 1 3 5 7 8 9 10 11 12 13 14 14 14 14 15 15 15 15 15 15 15
-9 -9 -10 -10 -10 -10 -11 -11 -10 -10 -10 -10 -9 -8 -6 -5 -4 -5 -4 -3 -3 -2 -1 1 3 5 7 8 9 10 11 12 13 13 14 14 14 15 15 15 15 15 15
-9 -10 -10 -11 -11 -12 -12 -11 -11 -11 -11 -11 -12 -11 -9 -8 -5 -5 -5 -4 -4 -3 -2 -0 1 3 5 7 8 9 10 12 12 13 13 14 14 14 14 15 15 15 15
-10 -11 -11 -12 -12 -13 -13 -13 -13 -13 -13 -12 -12 -12 -10 -9 -9 -7 -7 -6 -5 -4 -3 -1 0 2 4 6 7 8 9 11 12 12 12 13 13 14 14 14 14 15 15
-11 -11 -12 -12 -13 -13 -13 -13 -14 -13 -13 -13 -12 -12 -11 -11 -10 -9 -8 -7 -6 -5 -4 -2 -1 1 2 4 6 7 8 10 11 11 12 12 13 13 13 14 14 14 14
-11 -12 -13 -13 -13 -14 -14 -14 -14 -14 -14 -14 -13 -12 -11 -10 -10 -9 -8 -8 -7 -6 -4 -3 -2 -0 1 3 5 6 7 8 10 11 11 12 12 13 13 13 13 14 14
-12 -12 -13 -13 -13 -14 -14 -14 -14 -14 -14 -13 -13 -12 -12 -11 -10 -10 -9 -9 -8 -6 -5 -4 -3 -1 0 1 3 5 6 7 8 10 11 11 12 12 13 13 13 13 14
-12 -12 -13 -13 -13 -13 -13 -14 -14 -14 -13 -13 -13 -12 -11 -11 -10 -9 -9 -9 -8 -7 -6 -5 -4 -2 -1 -0 1 3 5 7 8 8 10 11 11 12 12 13 13 13 13
-13 -13 -13 -13 -13 -13 -13 -13 -14 -13 -13 -13 -12 -11 -11 -10 -10 -9 -9 -9 -8 -8 -7 -6 -4 -3 -2 -1 1 2 4 6 7 7 9 10 11 11 12 13 13 13 13
-13 -12 -12 -12 -13 -13 -13 -13 -13 -13 -13 -12 -12 -11 -10 -10 -9 -9 -9 -9 -8 -8 -7 -6 -5 -3 -2 -1 0 2 4 5 6 7 8 9 10 11 12 12 13 13 12
-12 -12 -12 -12 -12 -12 -12 -13 -13 -12 -12 -11 -11 -10 -10 -9 -9 -9 -9 -8 -8 -8 -7 -6 -6 -4 -3 -2 -0 1 3 5 6 7 7 9 10 11 11 12 12 12 12
-12 -12 -11 -11 -11 -11 -11 -12 -11 -11 -11 -11 -10 -10 -10 -9 -9 -9 -8 -8 -8 -8 -7 -6 -5 -4 -3 -2 -0 1 2 4 6 7 7 8 9 10 11 11 12 12 12
-12 -11 -11 -11 -11 -11 -11 -11 -11 -11 -11 -10 -10 -10 -10 -9 -9 -9 -9 -8 -8 -8 -8 -7 -5 -4 -3 -2 -1 1 2 4 5 6 7 8 9 10 10 11 12 12 12
-12 -11 -11 -11 -10 -11 -11 -10 -10 -10 -10 -10 -10 -10 -10 -10 -10 -9 -9 -9 -9 -8 -8 -7 -6 -4 -3 -2 -1 0 2 3 5 6 7 8 9 9 10 11 11 12 12
-12 -12 -11 -11 -10 -10 -11 -11 -10 -10 -10 -10 -10 -10 -10 -10 -10 -10 -10 -10 -9 -9 -8 -7 -6 -5 -4 -2 -2 -0 2 3 4 6 7 8 8 9 10 10 11 11 12
-12 -12 -12 -11 -10 -10 -10 -11 -11 -11 -11 -10 -10 -10 -10 -10 -10 -10 -10 -10 -10 -9 -9 -8 -7 -6 -4 -3 -2 -1 1 2 4 5 7 7 8 9 9 10 10 11 11
-12 -12 -12 -12 -11 -11 -11 -11 -12 -11 -11 -11 -11 -11 -11 -11 -11 -11 -11 -11 -10 -10 -10 -9 -9 -7 -6 -5 -3 -2 -1 2 3 5 6 7 7 8 9 9 10 11 11
-13 -13 -12 -12 -12 -11 -11 -12 -12 -12 -12 -12 -12 -12 -12 -12 -11 -11 -11 -10 -10 -10 -10 -10 -9 -8 -7 -6 -4 -3 -2 0 2 3 5 6 7 7 8 9 10 10 11
-13 -13 -13 -13 -12 -12 -11 -12 -12 -12 -12 -12 -13 -13 -13 -12 -12 -11 -11 -11 -11 -10 -10 -10 -10 -9 -8 -6 -5 -4 -2 -0 1 3 4 5 6 7 7 8 9 10 10
-12 -13 -13 -13 -13 -12 -12 -12 -12 -12 -13 -13 -13 -13 -13 -13 -12 -12 -12 -12 -11 -10 -10 -10 -9 -9 -7 -6 -5 -4 -2 -1 1 2 3 4 5 6 7 7 8 9 10
-12 -13 -13 -13 -13 -13 -12 -12 -12 -12 -13 -13 -13 -14 -13 -13 -13 -13 -13 -13 -12 -11 -10 -9 -8 -8 -7 -6 -5 -4 -3 -2 -0 1 2 3 5 5 6 7 7 8 9
Wind_Speed
17 18 17 18 19 20 20 20 20 21 20 20 20 20 19 21 21 21 20 27 30 29 28 27 26 25 24 23 24 27 31 34 34 32 31 31 31 31 31 31 30 30 30
18 18 17 16 18 20 20 19 20 18 17 17 17 19 20 21 20 21 22 25 27 28 27 26 26 25 24 24 23 26 31 34 35 34 33 32 32 32 32 31 31 30 30
19 18 16 15 17 20 20 19 18 16 14 14 14 16 17 18 19 21 22 21 21 23 25 25 24 24 24 23 23 23 28 33 35 36 35 33 33 33 32 32 31 31 31
19 18 15 14 19 19 17 15 10 12 13 13 14 14 13 15 17 20 19 19 18 17 19 22 23 22 22 22 22 22 24 30 34 36 37 36 34 33 33 33 32 31 31
20 19 16 15 19 16 14 13 10 12 13 14 14 14 13 14 15 16 14 16 16 15 14 18 21 20 19 20 20 20 20 25 32 35 37 38 36 35 34 34 33 32 31
21 20 16 16 18 12 8 9 12 12 12 13 16 15 14 16 14 11 11 10 11 12 14 16 16 16 18 17 17 17 17 19 27 32 35 37 38 36 36 35 34 33 32
21 20 16 16 16 10 10 11 12 13 11 11 12 14 13 12 11 6 7 7 7 9 14 15 15 13 13 18 16 15 14 15 20 27 31 35 37 37 36 35 34 34 33
22 20 18 16 15 10 10 10 12 10 11 9 10 12 8 6 4 11 8 7 7 8 12 15 16 14 14 12 14 16 13 12 15 21 27 30 34 37 36 35 34 35 35
21 21 20 18 16 10 10 11 11 11 12 11 8 7 6 6 12 6 6 6 7 9 10 11 13 15 16 12 12 12 13 11 12 15 21 25 30 34 35 34 33 33 33
21 21 20 20 17 14 11 12 10 10 11 11 10 7 9 11 8 7 5 5 8 10 10 12 14 13 14 12 12 14 13 11 11 11 14 20 25 31 35 34 32 30 29
19 20 21 19 17 15 12 11 12 11 9 10 10 10 11 11 11 9 12 9 8 7 8 12 12 11 11 11 9 11 13 11 10 11 11 14 20 26 31 35 34 30 28
13 17 21 19 18 16 13 13 11 12 11 11 10 10 10 9 8 8 11 14 12 9 10 10 10 9 8 9 10 13 12 11 10 11 11 10 15 22 28 33 36 35 33
12 12 19 17 17 18 18 16 12 12 11 11 10 10 10 10 10 11 11 12 13 11 7 8 8 9 8 7 9 15 11 10 10 11 11 11 10 16 22 28 34 37 36
12 19 20 21 22 21 19 15 13 13 10 10 12 12 10 10 10 10 10 11 12 9 7 7 9 8 6 8 13 16 9 11 11 11 11 11 10 13 17 23 29 33 34
17 21 22 21 21 21 18 14 12 12 10 11 11 12 10 9 9 9 9 10 10 12 11 6 5 7 9 9 14 11 9 11 11 10 10 11 10 11 15 19 25 31 32
18 19 19 19 19 19 17 14 12 11 10 11 9 10 10 8 8 8 9 9 9 10 10 6 7 10 12 12 16 11 10 13 10 9 9 10 9 10 14 18 23 27 30
17 16 18 19 20 19 16 12 10 10 9 9 9 9 10 10 8 7 7 7 7 8 11 10 9 10 11 12 11 9 8 6 5 8 10 10 8 9 14 17 22 27 29
17 17 17 18 19 18 15 12 11 10 9 10 10 9 10 9 9 8 7 8 7 7 8 12 10 8 9 10 10 9 7 5 4 7 9 10 7 8 13 17 21 24 27
14 17 16 17 18 16 13 13 13 12 11 11 11 11 11 11 11 9 8 8 8 8 7 9 9 8 7 7 7 7 6 4 4 4 6 7 6 7 12 15 19 22 25
12 14 15 16 17 15 9 10 12 13 14 14 13 13 12 12 12 12 10 10 10 9 9 8 8 7 6 6 4 4 3 2 2 2 3 3 3 5 10 14 17 20 23
13 13 14 15 16 14 10 9 10 12 12 13 14 14 14 20 22 17 14 12 11 9 9 8 8 7 6 6 5 4 4 3 2 1 1 1 0 2 4 9 12 17 20
12 12 13 14 16 15 21 23 15 10 11 12 14 14 14 16 21 22 24 21 18 14 11 8 7 9 9 8 7 7 5 2 1 2 1 1 1 3 4 5 10 15 17
11 12 12 13 14 18 25 23 23 11 10 11 12 13 15 18 20 9 17 21 18 21 18 11 8 9 9 9 10 8 7 4 3 3 3 1 1 3 3 5 13 15 16
9 8 10 12 13 18 25 21 21 11 8 10 11 12 13 14 18 15 13 13 11 11 15 10 8 8 9 10 8 7 7 7 6 3 1 1 0 1 2 4 12 14 15
8 8 9 10 12 16 24 21 16 7 8 10 11 14 16 12 24 25 16 15 14 11 16 19 17 15 16 16 12 7 6 3 2 1 1 0 0 1 2 2 6 13 15
8 10 11 10 11 12 21 23 16 6 7 9 9 12 20 22 25 26 15 15 16 13 13 14 14 14 11 12 15 8 5 4 3 1 1 0 1 1 2 2 3 6 9
Wind_Direction
343 341 336 335 336 337 334 331 328 325 324 322 318 316 314 311 306 303 303 304 304 304 303 300 297 292 284 278 266 245 233 225 215 209 207 204 202 199 198 197 195 194 192
340 338 333 331 334 334 330 327 322 321 321 318 314 314 309 305 302 301 301 301 301 301 301 299 295 290 285 279 273 254 237 228 221 212 208 206 203 201 199 198 197 196 194
337 335 329 326 331 330 327 326 320 323 320 317 313 310 307 303 301 300 298 296 295 299 300 301 298 290 284 279 276 265 243 231 224 216 209 206 204 202 201 199 198 197 195
335 332 325 322 327 327 327 325 324 326 320 317 313 309 305 303 300 296 294 292 292 294 300 308 306 296 285 279 276 272 253 234 226 220 212 206 204 203 202 200 198 198 196
333 329 320 320 325 324 323 324 327 322 319 316 312 307 305 301 294 292 291 290 289 295 305 317 318 311 296 283 278 275 264 242 230 223 216 208 204 203 202 201 199 198 197
330 326 319 322 323 320 319 319 319 319 314 314 312 307 302 292 286 284 287 292 297 309 325 324 322 320 315 302 291 281 272 253 234 226 221 212 206 204 202 201 199 199 198
327 322 320 321 319 316 316 316 320 318 317 318 315 315 299 280 276 294 300 298 305 330 334 330 327 323 321 317 309 301 287 270 244 230 224 217 209 204 203 201 200 199 198
327 326 323 319 316 314 312 314 317 315 317 324 316 317 312 305 338 326 303 306 323 337 331 328 320 322 318 310 308 309 308 296 268 239 226 220 214 208 204 202 201 200 199
324 321 318 317 313 311 310 309 306 312 315 312 305 302 305 312 323 282 291 306 327 325 322 319 315 316 310 307 306 305 315 315 294 261 233 222 217 212 207 204 203 201 200
323 322 321 317 313 312 306 305 314 304 303 307 306 283 287 295 296 306 301 306 310 315 313 315 311 305 304 302 299 303 312 320 309 286 254 230 220 213 208 203 201 200 200
323 322 321 316 313 311 304 300 301 295 295 294 295 294 294 291 276 286 303 311 312 302 304 305 301 299 301 300 298 303 319 323 318 305 283 246 227 218 211 203 198 198 200
321 318 319 313 309 306 301 299 295 291 290 288 287 286 287 289 294 295 298 307 310 310 305 298 297 297 300 302 306 318 323 331 329 317 305 280 240 224 215 206 198 197 198
324 317 316 312 308 302 300 298 295 291 286 283 283 284 282 281 285 286 292 300 303 305 296 294 294 298 303 317 323 329 321 334 341 321 315 299 266 231 218 208 199 197 197
316 314 315 313 307 303 302 298 296 289 285 282 285 283 283 282 281 284 288 295 300 300 295 287 297 293 323 329 322 325 320 332 337 325 318 305 277 237 217 207 198 194 197
320 319 316 313 312 310 306 300 293 289 286 284 283 283 282 282 283 283 282 283 288 298 304 290 294 314 324 314 311 312 312 317 326 324 318 305 278 239 215 201 192 190 193
320 320 321 322 321 319 315 308 299 293 290 289 287 289 292 290 288 287 284 282 280 282 286 288 293 297 301 303 304 308 303 306 313 323 316 308 279 237 212 192 183 182 188
324 325 327 330 332 333 333 329 323 315 309 309 311 310 309 307 309 304 301 298 294 289 286 290 285 289 290 293 296 295 289 283 294 312 317 308 279 232 208 189 181 182 186
328 330 332 336 342 345 349 351 345 342 337 335 335 333 332 337 333 325 323 320 311 300 294 295 295 292 288 289 287 286 285 284 278 297 308 306 283 231 203 189 180 181 183
329 334 338 341 344 347 0 10 10 8 3 358 354 352 348 347 347 343 340 338 330 325 312 301 298 294 292 294 290 284 277 270 276 291 303 305 280 229 198 185 179 179 180
333 336 338 340 342 343 359 20 19 17 13 10 6 1 355 357 358 351 353 353 343 336 333 324 314 312 310 307 301 300 303 274 284 303 307 304 283 224 190 180 177 176 177
339 336 338 341 343 344 358 35 25 14 9 6 3 359 355 1 5 5 1 1 353 346 347 342 340 339 338 346 343 326 307 291 285 304 338 317 260 193 179 172 169 170 172
335 336 337 339 343 345 3 26 29 13 6 4 0 356 352 353 0 6 3 4 3 357 357 354 347 344 341 339 335 332 320 325 349 8 3 315 169 184 172 163 165 168 170
330 333 332 336 339 339 1 24 25 17 3 360 356 354 355 352 355 1 360 1 359 360 360 357 342 338 332 335 334 332 333 335 326 343 358 352 170 186 167 163 163 166 168
326 325 324 331 336 340 353 16 25 15 360 354 350 349 348 346 347 10 0 352 352 353 352 351 343 338 338 334 333 320 308 306 289 273 346 339 266 170 152 154 167 165 164
319 320 323 327 332 334 343 2 25 6 5 351 350 354 352 350 356 9 6 354 353 354 354 355 359 359 360 356 359 352 339 316 301 304 89 245 240 110 112 125 159 165 162
320 325 327 326 323 322 334 347 13 14 6 358 352 352 353 4 4 8 9 358 357 356 347 345 349 352 351 352 5 6 343 325 321 329 59 314 258 140 116 78 118 150 154
Height
1529 1523 1518 1513 1509 1503 1498 1493 1489 1484 1480 1477 1474 1470 1467 1464 1462 1459 1457 1458 1458 1458 1460 1461 1463 1466 1470 1473 1477 1480 1484 1489 1494 1499 1503 1508 1513 1517 1522 1528 1533 1538 1543
1525 1520 1514 1509 1504 1499 1494 1489 1484 1479 1474 1470 1467 1464 1460 1457 1454 1452 1450 1449 1449 1450 1451 1453 1454 1457 1460 1464 1468 1472 1476 1480 1486 1491 1496 1501 1506 1511 1516 1522 1527 1532 1537
1522 1516 1510 1505 1500 1495 1490 1484 1479 1474 1469 1464 1460 1457 1453 1450 1447 1445 1443 1442 1441 1441 1443 1444 1445 1448 1451 1454 1458 1463 1467 1472 1477 1482 1488 1493 1499 1504 1509 1515 1521 1526 1532
1518 1512 1506 1501 1496 1490 1485 1479 1474 1468 1463 1458 1453 1449 1446 1443 1440 1438 1436 1435 1434 1434 1434 1435 1436 1439 1441 1445 1449 1453 1458 1463 1468 1473 1480 1485 1491 1497 1503 1508 1514 1520 1526
1514 1508 1502 1497 1491 1485 1480 1475 1470 1464 1458 1453 1447 1442 1439 1436 1433 1431 1429 1428 1427 1427 1426 1426 1427 1430 1433 1436 1440 1444 1449 1453 1458 1464 1471 1477 1483 1489 1495 1501 1507 1513 1519
1510 1504 1498 1492 1487 1481 1475 1471 1465 1460 1455 1449 1443 1437 1432 1430 1427 1425 1424 1423 1422 1420 1419 1418 1419 1421 1424 1427 1431 1435 1440 1445 1449 1455 1461 1468 1474 1481 1488 1494 1500 1507 1513
1506 1499 1493 1487 1482 1476 1471 1466 1461 1455 1451 1446 1439 1431 1425 1424 1421 1420 1420 1419 1417 1415 1413 1412 1412 1412 1415 1418 1422 1427 1431 1436 1440 1445 1451 1458 1466 1472 1479 1486 1493 1500 1506
1502 1495 1489 1483 1477 1471 1466 1461 1457 1451 1446 1444 1440 1433 1424 1419 1418 1416 1415 1414 1412 1410 1408 1406 1405 1405 1407 1410 1414 1418 1423 1427 1432 1437 1442 1448 1456 1463 1471 1478 1485 1492 1499
1497 1491 1484 1478 1472 1467 1461 1457 1452 1448 1442 1440 1439 1437 1430 1422 1415 1409 1410 1410 1408 1406 1403 1401 1400 1399 1400 1402 1406 1411 1415 1419 1424 1428 1433 1439 1446 1453 1461 1469 1477 1485 1492
1493 1486 1480 1474 1468 1462 1457 1452 1448 1444 1439 1435 1433 1431 1430 1425 1420 1409 1406 1405 1404 1401 1399 1396 1394 1394 1394 1396 1399 1403 1407 1411 1416 1421 1425 1430 1436 1443 1451 1459 1468 1477 1485
1489 1483 1476 1470 1464 1458 1452 1447 1442 1438 1434 1431 1428 1425 1423 1421 1418 1413 1404 1400 1398 1397 1394 1392 1390 1389 1389 1390 1392 1396 1399 1404 1410 1415 1419 1423 1428 1435 1442 1450 1458 1467 1477
1484 1479 1472 1466 1459 1453 1447 1441 1436 1432 1428 1425 1422 1420 1418 1416 1413 1410 1404 1398 1394 1391 1390 1388 1386 1385 1385 1385 1387 1389 1393 1398 1403 1408 1414 1418 1423 1429 1436 1442 1449 1459 1469
1481 1474 1468 1461 1454 1447 1441 1435 1430 1426 1422 1419 1417 1415 1413 1411 1409 1407 1403 1397 1393 1388 1386 1383 1382 1381 1381 1381 1381 1383 1388 1392 1396 1402 1408 1413 1419 1425 1431 1437 1443 1451 1460
1480 1473 1465 1457 1449 1442 1435 1429 1424 1419 1416 1414 1412 1410 1408 1406 1405 1403 1400 1396 1390 1385 1382 1380 1377 1377 1376 1376 1376 1378 1382 1386 1392 1397 1402 1408 1414 1420 1426 1433 1438 1444 1454
1480 1472 1462 1453 1444 1436 1429 1423 1418 1414 1411 1409 1407 1406 1404 1402 1400 1398 1396 1393 1390 1384 1378 1376 1375 1373 1372 1372 1372 1373 1376 1381 1387 1392 1397 1403 1409 1415 1421 1428 1434 1441 1447
1478 1470 1460 1451 1442 1433 1425 1419 1414 1411 1408 1406 1405 1403 1401 1399 1397 1394 1391 1388 1386 1383 1377 1372 1371 1369 1368 1367 1368 1369 1371 1376 1382 1388 1393 1398 1404 1410 1416 1422 1429 1436 1443
1477 1469 1461 1452 1443 1434 1426 1419 1415 1411 1408 1406 1404 1402 1400 1397 1394 1391 1387 1384 1381 1379 1374 1369 1367 1365 1364 1363 1364 1365 1367 1372 1378 1384 1389 1395 1400 1405 1412 1418 1424 1432 1440
1477 1470 1462 1454 1446 1438 1431 1424 1419 1414 1411 1407 1405 1403 1400 1397 1393 1389 1385 1381 1377 1374 1371 1366 1363 1361 1360 1360 1360 1362 1364 1368 1373 1379 1386 1391 1395 1401 1407 1413 1420 1427 1435
1477 1471 1464 1456 1449 1442 1436 1430 1424 1419 1415 1411 1408 1404 1401 1397 1392 1388 1383 1379 1375 1371 1367 1364 1360 1357 1356 1356 1357 1358 1360 1364 1369 1374 1381 1386 1391 1397 1403 1409 1415 1423 1431
1477 1471 1465 1459 1452 1446 1440 1434 1429 1424 1419 1415 1410 1406 1402 1398 1393 1388 1383 1378 1373 1368 1364 1361 1357 1355 1353 1354 1354 1355 1357 1361 1365 1370 1376 1382 1387 1393 1398 1405 1411 1418 1425
1478 1472 1466 1460 1454 1448 1443 1437 1431 1426 1421 1416 1412 1407 1403 1399 1395 1389 1384 1378 1372 1368 1363 1359 1355 1353 1352 1352 1352 1353 1355 1357 1361 1366 1372 1378 1383 1389 1394 1400 1406 1413 1420
1478 1472 1467 1461 1455 1449 1445 1439 1433 1428 1423 1418 1413 1408 1403 1399 1394 1388 1383 1377 1372 1368 1363 1359 1355 1353 1351 1351 1351 1352 1353 1355 1359 1364 1369 1374 1380 1385 1390 1396 1402 1409 1416
1478 1473 1467 1462 1456 1451 1446 1441 1435 1429 1424 1419 1414 1409 1404 1399 1394 1387 1382 1376 1371 1366 1363 1360 1356 1353 1351 1350 1350 1350 1351 1353 1357 1362 1367 1371 1376 1381 1387 1393 1399 1406 1412
1478 1473 1468 1463 1457 1452 1447 1442 1436 1431 1426 1420 1415 1410 1405 1400 1395 1389 1381 1376 1371 1366 1362 1358 1355 1352 1350 1349 1349 1349 1350 1351 1355 1359 1363 1368 1373 1378 1384 1389 1396 1402 1408
1478 1473 1468 1463 1458 1453 1448 1443 1437 1432 1427 1422 1417 1412 1407 1401 1396 1390 1382 1376 1371 1366 1362 1358 1354 1351 1349 1348 1347 1348 1349 1352 1354 1358 1362 1366 1371 1376 1381 1386 1392 1399 1405
1479 1473 1468 1463 1458 1453 1448 1444 1439 1433 1428 1423 1418 1413 1408 1403 1397 1391 1384 1377 1372 1367 1361 1357 1353 1350 1347 1346 1346 1347 1348 1351 1353 1357 1361 1366 1369 1373 1378 1383 1389 1396 1402